Wind_Speed
17 16 16 16 15 15 15 15 17 18 18 17 17 18 18 17 15 15 16 16 16 16 16 16 15 15 15 15 14 13 13 12 12 12 12 12 11 10 10 10 11 10 9 8
17 17 17 17 17 16 16 16 17 19 19 18 18 19 19 18 16 17 17 17 17 17 17 17 16 16 16 15 13 13 13 12 12 12 12 11 11 12 12 11 11 11 10 10
17 18 17 17 16 16 16 17 18 19 19 19 19 19 19 18 17 17 17 18 18 18 18 18 17 17 17 16 15 14 14 13 13 12 12 12 12 12 12 12 12 12 12 11
17 17 16 16 16 16 16 17 18 19 18 19 18 17 18 18 17 17 18 17 18 18 18 18 18 18 18 18 17 15 14 14 15 14 13 13 13 13 13 13 13 13 13 13
16 16 16 15 15 15 16 17 18 18 18 18 18 17 17 18 18 18 18 18 17 18 18 19 19 18 19 19 18 17 16 17 16 16 15 15 15 15 14 14 14 14 13 13
15 15 15 15 15 15 16 16 16 17 17 19 18 17 18 17 17 17 17 17 17 18 18 19 19 18 19 19 19 19 19 19 17 17 17 16 17 17 16 16 15 14 14 14
16 15 15 15 15 15 15 15 15 15 16 17 18 18 18 17 17 17 18 17 18 17 18 18 18 18 19 20 20 19 19 18 18 18 18 18 17 17 17 17 17 16 16 15
16 16 16 16 16 16 15 15 15 15 15 16 18 18 18 17 17 17 18 18 18 18 18 19 19 19 20 20 20 20 19 19 18 19 19 19 19 18 18 18 17 17 17 17
16 17 17 17 17 16 16 16 16 17 17 17 18 19 18 17 17 17 18 18 19 19 20 20 19 19 20 21 21 21 20 19 19 19 20 20 19 19 18 18 18 19 18 18
17 17 17 17 17 18 18 17 17 17 17 17 18 19 18 19 19 18 18 18 19 19 19 19 19 19 19 19 20 20 20 20 20 19 19 19 20 20 19 19 20 20 20 19
17 17 18 18 18 17 18 18 18 18 18 17 18 20 20 20 19 18 18 18 18 18 19 19 19 18 18 19 20 20 21 21 21 20 19 19 20 21 20 20 20 21 21 21
17 17 17 18 18 18 18 18 18 18 19 18 18 20 20 20 19 18 17 17 18 19 19 19 19 19 20 21 21 20 20 20 20 21 21 21 21 21 20 21 21 22 22 22
19 19 18 18 18 18 18 18 18 19 19 19 18 20 20 20 19 19 19 18 18 19 20 20 20 20 20 20 21 21 21 21 21 21 21 21 21 21 21 22 22 23 23 24
20 20 19 19 19 19 19 19 19 19 18 19 19 19 20 20 20 20 19 19 19 18 19 19 20 20 21 21 21 21 21 22 22 22 22 21 21 21 21 22 22 23 23 24
21 21 21 21 21 20 20 20 20 20 20 20 20 20 20 20 20 19 19 19 19 19 20 20 21 22 23 23 22 22 22 22 22 22 22 22 22 22 23 23 23 23 23 24
22 22 22 22 22 22 22 21 21 21 21 21 21 21 20 20 20 20 20 20 21 21 21 21 22 23 23 23 23 22 22 22 22 22 23 23 23 23 23 23 23 23 23 23
23 23 23 22 21 22 23 22 22 22 22 22 22 23 22 21 21 21 21 21 22 22 22 23 23 23 23 23 22 22 22 22 22 22 23 23 23 23 24 24 24 24 23 23
22 22 22 22 22 23 23 22 23 23 23 23 24 23 23 23 22 22 23 23 23 23 23 23 23 23 23 23 23 22 21 22 23 23 23 23 24 24 24 24 24 23 23 23
22 21 22 22 23 24 24 23 23 23 23 24 24 24 24 24 24 25 24 24 24 23 23 23 23 23 23 23 23 23 23 24 24 24 24 24 24 23 23 23 23 23 22 22
23 23 23 24 23 24 24 23 23 24 24 24 25 25 24 24 25 25 25 25 24 23 23 24 25 24 24 24 24 24 24 24 24 23 24 24 23 23 23 22 22 21 21 21
23 24 24 24 24 23 24 23 23 24 24 24 24 23 23 23 24 24 24 25 24 23 23 23 23 23 24 25 25 24 24 24 24 24 24 23 23 22 22 21 21 21 21 21
23 23 23 23 24 25 24 24 24 24 24 24 23 23 23 24 24 25 24 24 24 23 23 23 23 23 23 23 24 24 23 24 24 24 24 23 23 23 23 22 22 21 21 21
24 23 23 23 24 25 24 24 24 23 23 23 23 23 24 24 24 24 24 24 24 23 23 23 23 23 23 23 23 23 23 24 24 24 24 23 23 24 23 22 22 21 22 22
23 23 24 24 24 24 25 25 24 23 23 23 23 23 24 24 24 24 24 23 23 23 23 23 23 23 23 23 23 23 23 23 23 23 23 23 23 23 23 23 23 23 23 23
23 23 23 24 24 24 24 24 23 23 23 23 22 23 23 24 24 24 23 23 23 23 23 23 23 23 23 23 23 23 22 22 22 22 23 24 24 23 23 23 23 24 24 25
22 23 23 24 24 24 24 23 23 23 22 22 22 22 23 23 23 23 23 23 23 23 23 23 23 23 23 23 23 23 23 23 23 23 24 24 24 24 24 24 24 24 25 25
Wind_Direction
239 240 242 244 242 243 245 248 253 258 261 264 264 265 266 267 269 273 275 277 279 281 280 282 284 283 283 285 286 287 282 277 275 274 270 270 273 272 275 273 269 268 268 265
240 241 243 246 247 248 249 253 256 261 264 264 264 267 267 267 268 271 274 276 277 279 280 281 281 281 283 283 282 282 284 280 279 279 271 269 272 273 273 271 268 268 264 262
238 242 244 246 249 251 253 255 256 260 264 267 266 267 267 266 269 270 272 273 274 276 277 278 278 280 280 279 281 285 283 278 277 278 276 270 271 273 271 268 268 266 263 260
239 242 244 249 251 253 255 257 259 261 265 267 268 269 270 268 268 269 270 272 273 275 277 278 278 278 277 275 278 280 283 278 273 274 272 269 269 269 268 266 266 262 260 259
241 242 244 249 253 254 254 258 261 263 264 264 268 267 269 269 267 268 268 271 273 275 277 279 276 275 275 275 275 277 280 281 275 269 268 268 268 268 267 265 265 263 258 258
241 242 245 248 252 254 256 261 264 266 265 266 268 268 270 271 270 269 270 272 275 275 277 277 275 276 276 276 277 277 279 278 274 270 266 267 267 267 265 265 264 261 259 259
245 247 250 251 253 253 254 260 267 268 267 268 270 269 269 271 269 269 270 273 276 277 276 275 275 275 275 275 275 275 277 276 272 272 270 267 267 267 265 266 264 260 259 259
248 251 251 252 254 256 255 255 257 261 264 268 272 272 273 273 272 271 271 272 274 276 277 278 275 273 274 275 276 277 278 278 274 275 274 270 267 267 267 264 261 261 259 259
247 249 251 251 254 255 256 256 257 261 263 265 267 272 276 274 272 272 272 274 277 278 278 278 275 272 272 273 275 277 276 275 276 277 274 270 266 266 263 260 261 261 261 260
245 250 251 252 254 254 255 258 260 260 263 265 268 270 273 274 273 271 271 273 276 278 279 279 278 274 272 273 274 275 273 273 276 277 274 271 268 266 264 263 262 261 261 261
246 251 254 254 254 258 260 261 263 262 260 265 268 269 272 276 274 271 270 272 275 277 276 279 279 274 272 273 276 275 273 274 274 273 271 269 268 266 263 262 263 263 262 262
248 251 254 256 257 258 260 262 264 265 268 267 268 272 273 275 277 276 275 275 275 274 275 278 279 274 271 273 275 275 275 274 273 272 271 271 268 266 265 264 263 263 263 263
250 253 256 259 261 262 262 262 263 266 268 270 269 272 274 274 275 276 277 277 277 276 277 278 278 276 274 274 275 275 274 275 274 273 272 272 269 265 264 265 264 264 264 263
251 253 254 257 259 262 264 263 263 265 267 271 272 273 275 274 275 275 277 278 278 276 274 275 277 276 274 273 274 275 274 276 275 274 272 272 269 267 266 266 266 265 265 265
251 254 255 256 258 260 263 263 264 263 264 267 271 273 274 274 273 274 276 277 276 274 275 278 279 278 276 273 272 273 273 274 274 273 273 272 270 270 268 267 267 266 266 266
252 255 257 259 260 261 262 262 264 265 266 267 270 271 273 274 274 274 275 276 274 275 276 278 280 278 276 275 273 273 274 272 272 272 272 273 273 273 270 269 269 268 268 267
254 257 259 261 262 262 262 263 265 267 268 268 270 271 273 273 273 274 276 277 276 276 276 279 278 276 275 275 274 272 272 272 271 271 271 273 274 275 274 273 270 269 268 267
256 257 260 261 262 263 265 264 265 267 268 268 268 269 271 272 273 273 273 275 276 277 276 278 278 277 277 275 273 272 272 272 271 270 271 273 273 274 274 274 272 269 268 267
255 256 258 260 264 266 266 267 268 268 268 268 268 269 270 271 272 273 273 274 277 279 278 277 278 277 276 275 273 271 271 271 271 271 271 271 271 273 273 272 270 269 268 266
255 256 258 260 263 266 269 268 269 270 270 269 269 270 272 272 273 275 276 276 278 278 277 276 276 276 274 272 271 271 272 271 270 270 270 270 269 271 271 270 269 268 267 266
255 256 257 260 263 266 268 271 271 270 271 270 270 271 271 271 272 275 276 276 276 277 277 278 277 274 273 271 271 272 272 271 269 269 270 269 270 269 268 268 268 267 266 267
257 257 257 259 263 266 268 270 270 271 270 269 269 269 269 270 271 272 274 275 275 275 278 281 280 278 275 273 273 273 271 271 270 269 269 269 270 269 268 268 269 267 266 268
255 255 257 258 262 266 267 268 269 270 270 269 269 268 269 271 272 272 272 273 274 275 276 279 279 279 279 277 276 275 273 272 271 270 268 268 269 268 265 266 268 268 268 268
256 256 259 261 263 265 266 267 267 269 269 268 269 268 270 271 273 272 271 272 274 275 276 277 278 278 277 275 276 275 273 272 271 271 269 268 269 267 267 267 267 267 267 267
259 260 262 263 264 265 266 267 267 269 270 268 268 269 269 270 271 271 272 273 275 276 275 277 278 278 279 278 277 275 273 272 272 272 270 268 268 267 268 269 268 267 266 268
258 261 263 264 264 265 266 266 266 267 268 269 268 269 271 272 272 272 272 272 274 275 276 276 278 279 278 279 279 278 277 274 273 272 270 269 269 267 268 269 270 269 268 267
Height
5864 5867 5868 5870 5871 5873 5874 5875 5876 5876 5875 5876 5877 5877 5877 5877 5877 5877 5876 5876 5875 5875 5874 5873 5872 5870 5869 5868 5866 5864 5863 5862 5862 5861 5861 5860 5860 5859 5859 5858 5858 5857 5857 5857
5861 5863 5865 5865 5867 5868 5870 5871 5871 5871 5871 5872 5872 5873 5873 5873 5873 5873 5872 5872 5872 5871 5870 5869 5868 5867 5866 5864 5863 5862 5860 5860 5859 5858 5857 5857 5856 5856 5856 5855 5855 5855 5855 5855
5858 5860 5860 5862 5863 5864 5866 5867 5867 5867 5867 5868 5868 5869 5869 5869 5869 5869 5868 5868 5867 5867 5866 5865 5864 5863 5862 5861 5860 5859 5858 5857 5856 5855 5854 5854 5854 5853 5853 5853 5852 5852 5852 5852
5853 5855 5856 5858 5859 5860 5862 5862 5862 5863 5864 5865 5865 5866 5865 5864 5865 5865 5864 5864 5863 5862 5862 5861 5860 5859 5858 5857 5856 5855 5854 5854 5853 5852 5852 5851 5850 5850 5849 5849 5849 5848 5848 5849
5850 5851 5852 5854 5855 5856 5857 5857 5858 5859 5859 5860 5860 5861 5862 5860 5860 5860 5860 5859 5859 5858 5857 5856 5855 5854 5854 5852 5851 5851 5850 5849 5849 5848 5848 5847 5847 5846 5846 5845 5845 5845 5845 5845
5846 5847 5848 5850 5851 5851 5852 5854 5854 5854 5855 5856 5856 5857 5857 5856 5856 5855 5855 5855 5854 5854 5853 5851 5850 5849 5849 5848 5847 5846 5845 5844 5843 5843 5843 5843 5843 5842 5842 5842 5841 5841 5841 5841
5842 5843 5844 5846 5847 5847 5849 5851 5852 5852 5852 5853 5852 5851 5852 5852 5851 5850 5850 5850 5849 5849 5848 5847 5846 5845 5844 5843 5842 5841 5840 5838 5838 5838 5838 5838 5838 5837 5837 5837 5837 5837 5837 5837
5839 5840 5841 5842 5843 5844 5845 5847 5849 5850 5850 5849 5847 5846 5848 5846 5846 5846 5845 5845 5845 5844 5843 5842 5841 5840 5839 5838 5837 5836 5835 5834 5833 5833 5833 5832 5832 5833 5833 5833 5833 5833 5833 5833
5835 5837 5837 5837 5838 5840 5840 5841 5843 5844 5843 5844 5843 5842 5842 5842 5841 5841 5840 5840 5840 5839 5838 5837 5836 5835 5834 5833 5832 5831 5830 5830 5829 5828 5827 5826 5827 5827 5827 5827 5828 5828 5828 5828
5830 5832 5832 5833 5834 5835 5836 5837 5838 5838 5838 5839 5839 5838 5839 5837 5836 5836 5835 5835 5834 5833 5832 5831 5830 5829 5829 5828 5827 5826 5825 5824 5824 5823 5822 5822 5822 5822 5822 5822 5822 5822 5823 5823
5825 5827 5828 5829 5829 5830 5831 5832 5832 5833 5834 5835 5835 5836 5833 5832 5831 5831 5830 5830 5829 5828 5827 5826 5825 5824 5823 5823 5822 5821 5820 5819 5818 5818 5817 5817 5817 5817 5816 5816 5817 5817 5817 5818
5820 5822 5823 5824 5824 5825 5826 5827 5827 5829 5828 5828 5829 5831 5827 5826 5826 5825 5825 5824 5824 5823 5822 5821 5820 5819 5818 5817 5816 5816 5815 5814 5813 5813 5812 5812 5811 5811 5811 5811 5811 5811 5811 5812
5815 5817 5818 5819 5821 5821 5820 5821 5822 5822 5823 5822 5824 5826 5821 5821 5820 5820 5819 5819 5818 5817 5816 5815 5814 5813 5812 5811 5811 5810 5809 5808 5808 5807 5806 5806 5805 5805 5805 5805 5805 5805 5805 5806
5810 5811 5814 5816 5816 5816 5815 5816 5816 5817 5818 5817 5818 5817 5816 5815 5815 5814 5814 5813 5812 5811 5810 5809 5808 5807 5806 5806 5805 5804 5803 5803 5802 5801 5800 5800 5799 5799 5798 5798 5798 5798 5798 5799
5804 5805 5807 5808 5809 5810 5810 5810 5811 5811 5811 5812 5812 5811 5810 5809 5809 5808 5808 5807 5807 5806 5805 5804 5802 5801 5800 5799 5798 5798 5797 5796 5796 5795 5794 5794 5793 5792 5792 5791 5791 5791 5791 5792
5798 5799 5801 5801 5802 5803 5803 5804 5804 5805 5805 5805 5805 5805 5804 5803 5803 5802 5802 5801 5801 5800 5799 5798 5796 5795 5793 5793 5792 5791 5790 5790 5789 5789 5788 5787 5786 5786 5785 5785 5784 5784 5784 5785
5792 5793 5794 5795 5796 5796 5797 5798 5798 5798 5798 5799 5798 5799 5798 5797 5797 5796 5796 5795 5794 5793 5792 5791 5790 5788 5787 5786 5785 5785 5784 5783 5783 5782 5781 5781 5780 5779 5778 5778 5777 5777 5777 5777
5786 5787 5788 5789 5790 5790 5792 5791 5791 5791 5791 5791 5791 5791 5791 5791 5790 5789 5789 5788 5787 5786 5785 5784 5783 5782 5781 5780 5779 5778 5778 5777 5776 5776 5775 5774 5773 5772 5771 5771 5770 5770 5770 5770
5779 5780 5781 5782 5782 5783 5784 5784 5784 5784 5784 5784 5784 5784 5784 5783 5783 5782 5781 5780 5780 5779 5778 5777 5776 5775 5774 5773 5772 5772 5771 5770 5769 5769 5768 5767 5766 5766 5765 5764 5764 5764 5763 5763
5772 5773 5775 5775 5776 5776 5778 5777 5777 5778 5777 5777 5776 5776 5776 5776 5776 5775 5774 5773 5772 5771 5771 5770 5769 5768 5767 5766 5765 5764 5764 5763 5762 5762 5761 5760 5759 5759 5758 5757 5757 5757 5757 5757
5766 5767 5768 5768 5769 5770 5770 5769 5770 5771 5771 5769 5769 5768 5769 5768 5768 5767 5766 5765 5765 5764 5763 5762 5761 5760 5759 5758 5757 5757 5756 5755 5755 5754 5754 5753 5752 5751 5751 5751 5750 5750 5751 5751
5759 5760 5761 5762 5762 5764 5762 5762 5763 5763 5762 5761 5761 5761 5761 5760 5760 5759 5759 5758 5757 5757 5756 5755 5754 5752 5751 5751 5750 5749 5748 5748 5747 5747 5746 5746 5745 5745 5745 5745 5744 5744 5745 5745
5751 5753 5753 5755 5756 5755 5754 5754 5754 5754 5754 5754 5753 5753 5753 5752 5752 5751 5751 5751 5750 5750 5749 5748 5747 5746 5745 5744 5743 5742 5741 5740 5740 5740 5739 5739 5739 5738 5738 5738 5738 5738 5738 5738
5744 5745 5746 5747 5747 5747 5747 5746 5747 5746 5746 5746 5746 5746 5745 5745 5744 5744 5744 5743 5743 5742 5741 5741 5740 5739 5738 5736 5735 5735 5734 5734 5733 5733 5732 5732 5732 5732 5732 5732 5732 5732 5732 5732
5736 5737 5738 5738 5739 5739 5739 5739 5739 5739 5739 5739 5739 5738 5738 5738 5737 5737 5736 5736 5736 5735 5734 5733 5732 5732 5730 5729 5728 5727 5727 5727 5726 5726 5725 5725 5725 5725 5725 5725 5725 5725 5725 5725
5729 5729 5730 5731 5731 5732 5732 5732 5731 5731 5731 5731 5731 5731 5731 5730 5730 5729 5729 5729 5728 5728 5727 5726 5725 5724 5723 5722 5721 5720 5720 5719 5719 5719 5719 5718 5718 5718 5718 5718 5717 5717 5717 5717